Data supplied by UK-AIR on 21/1/2015
All Data GMT hour ending 
Status: R =Ratified P=Provisional,P*=As supplied
,,Billingham,,,,,,,,,,,,,,,,,,,,,,,
Date,time,"Nitric oxide",status,unit,"Nitrogen dioxide",status,unit,"Nitrogen oxides as nitrogen dioxide",status,unit
 
01-01-2013,01:00,0.97705,R,ugm-3,8.04908,R,ugm-3,10.11840,R,ugm-3
01-01-2013,02:00,1.23452,R,ugm-3,11.25315,R,ugm-3,13.93256,R,ugm-3
01-01-2013,03:00,1.04150,R,ugm-3,7.96891,R,ugm-3,10.13816,R,ugm-3
01-01-2013,04:00,0.84848,R,ugm-3,6.36289,R,ugm-3,8.12239,R,ugm-3
01-01-2013,05:00,0.96416,R,ugm-3,4.45134,R,ugm-3,6.28448,R,ugm-3
01-01-2013,06:00,0.92550,R,ugm-3,3.05618,R,ugm-3,4.74300,R,ugm-3
01-01-2013,07:00,0.92550,R,ugm-3,3.55964,R,ugm-3,5.27659,R,ugm-3
01-01-2013,08:00,0.88714,R,ugm-3,5.35261,R,ugm-3,7.11450,R,ugm-3
01-01-2013,09:00,1.27318,R,ugm-3,5.15228,R,ugm-3,7.52951,R,ugm-3
01-01-2013,10:00,1.46589,R,ugm-3,8.43699,R,ugm-3,11.32391,R,ugm-3
01-01-2013,11:00,1.65829,R,ugm-3,5.28902,R,ugm-3,8.30025,R,ugm-3
01-01-2013,12:00,1.69726,R,ugm-3,4.61391,R,ugm-3,7.64809,R,ugm-3
01-01-2013,13:00,2.04433,R,ugm-3,3.63423,R,ugm-3,7.17379,R,ugm-3
01-01-2013,14:00,1.77428,R,ugm-3,3.04135,R,ugm-3,6.10661,R,ugm-3
01-01-2013,15:00,1.69695,R,ugm-3,3.10399,R,ugm-3,6.04733,R,ugm-3
01-01-2013,16:00,1.65829,R,ugm-3,4.61773,R,ugm-3,7.58880,R,ugm-3
01-01-2013,17:00,1.38856,R,ugm-3,6.37388,R,ugm-3,9.01170,R,ugm-3
01-01-2013,18:00,2.16001,R,ugm-3,11.12071,R,ugm-3,15.29618,R,ugm-3
01-01-2013,19:00,2.19868,R,ugm-3,15.36885,R,ugm-3,19.86131,R,ugm-3
01-01-2013,20:00,1.73593,R,ugm-3,12.77789,R,ugm-3,16.36335,R,ugm-3
01-01-2013,21:00,2.35334,R,ugm-3,11.10398,R,ugm-3,15.59261,R,ugm-3
01-01-2013,22:00,1.58127,R,ugm-3,9.71454,R,ugm-3,12.86539,R,ugm-3
01-01-2013,23:00,1.96699,R,ugm-3,9.17904,R,ugm-3,12.92468,R,ugm-3
01-01-2013,24:00,1.61993,R,ugm-3,5.01218,R,ugm-3,7.94453,R,ugm-3
02-01-2013,01:00,1.59696,R,ugm-3,3.81671,R,ugm-3,6.64020,R,ugm-3
02-01-2013,02:00,0.92706,R,ugm-3,6.57804,R,ugm-3,8.47811,R,ugm-3
02-01-2013,03:00,1.81607,R,ugm-3,3.36887,R,ugm-3,6.52163,R,ugm-3
02-01-2013,04:00,1.46807,R,ugm-3,2.78364,R,ugm-3,5.33588,R,ugm-3
02-01-2013,05:00,0.96603,R,ugm-3,3.32966,R,ugm-3,5.09873,R,ugm-3
02-01-2013,06:00,1.39074,R,ugm-3,13.81064,R,ugm-3,16.89694,R,ugm-3
02-01-2013,07:00,9.85180,R,ugm-3,37.64613,R,ugm-3,55.90811,R,ugm-3
02-01-2013,08:00,5.94993,R,ugm-3,33.95118,R,ugm-3,45.65138,R,ugm-3
02-01-2013,09:00,32.14417,R,ugm-3,56.83233,R,ugm-3,112.46839,R,ugm-3
02-01-2013,10:00,8.92443,R,ugm-3,34.48094,R,ugm-3,51.04654,R,ugm-3
02-01-2013,11:00,3.55418,R,ugm-3,28.89788,R,ugm-3,36.40253,R,ugm-3
02-01-2013,12:00,5.91127,R,ugm-3,16.72481,R,ugm-3,27.33154,R,ugm-3
02-01-2013,13:00,2.89748,R,ugm-3,17.31817,R,ugm-3,23.06284,R,ugm-3
02-01-2013,14:00,4.67519,R,ugm-3,22.48000,R,ugm-3,31.42238,R,ugm-3
02-01-2013,15:00,4.55888,R,ugm-3,28.42023,R,ugm-3,37.52899,R,ugm-3
02-01-2013,16:00,8.92474,R,ugm-3,33.80918,R,ugm-3,50.33509,R,ugm-3
02-01-2013,17:00,5.56389,R,ugm-3,29.39656,R,ugm-3,40.19693,R,ugm-3
02-01-2013,18:00,3.16814,R,ugm-3,18.97296,R,ugm-3,25.25648,R,ugm-3
02-01-2013,19:00,2.16375,R,ugm-3,14.47141,R,ugm-3,18.85343,R,ugm-3
02-01-2013,20:00,1.66140,R,ugm-3,12.78028,R,ugm-3,16.24478,R,ugm-3
02-01-2013,21:00,1.27474,R,ugm-3,9.96078,R,ugm-3,12.62824,R,ugm-3
02-01-2013,22:00,1.08141,R,ugm-3,6.78890,R,ugm-3,8.95241,R,ugm-3
02-01-2013,23:00,1.15874,R,ugm-3,4.37676,R,ugm-3,6.52163,R,ugm-3
02-01-2013,24:00,1.08141,R,ugm-3,3.15276,R,ugm-3,5.09873,R,ugm-3
03-01-2013,01:00,0.72177,R,ugm-3,2.84963,R,ugm-3,3.95569,R,ugm-3
03-01-2013,02:00,0.88933,R,ugm-3,7.35882,R,ugm-3,8.72229,R,ugm-3
03-01-2013,03:00,0.81199,R,ugm-3,3.79870,R,ugm-3,5.04350,R,ugm-3
03-01-2013,04:00,0.88933,R,ugm-3,4.21372,R,ugm-3,5.57752,R,ugm-3
03-01-2013,05:00,0.88933,R,ugm-3,4.27253,R,ugm-3,5.63686,R,ugm-3
03-01-2013,06:00,0.96666,R,ugm-3,6.76499,R,ugm-3,8.24761,R,ugm-3
03-01-2013,07:00,15.15719,R,ugm-3,29.56773,R,ugm-3,52.80843,R,ugm-3
03-01-2013,08:00,8.27459,R,ugm-3,23.38796,R,ugm-3,36.07587,R,ugm-3
03-01-2013,09:00,6.07061,R,ugm-3,27.06427,R,ugm-3,36.37255,R,ugm-3
03-01-2013,10:00,4.91062,R,ugm-3,25.34254,R,ugm-3,32.87176,R,ugm-3
03-01-2013,11:00,,,,,,,,,
03-01-2013,12:00,5.91594,R,ugm-3,25.75898,R,ugm-3,34.82983,R,ugm-3
03-01-2013,13:00,2.97731,R,ugm-3,25.99231,R,ugm-3,30.55769,R,ugm-3
03-01-2013,14:00,2.93864,R,ugm-3,23.79724,R,ugm-3,28.30294,R,ugm-3
03-01-2013,15:00,3.47997,R,ugm-3,27.77333,R,ugm-3,33.10910,R,ugm-3
03-01-2013,16:00,4.21463,R,ugm-3,20.41689,R,ugm-3,26.87890,R,ugm-3
03-01-2013,17:00,3.05464,R,ugm-3,23.79724,R,ugm-3,28.48095,R,ugm-3
03-01-2013,18:00,2.01065,R,ugm-3,21.77812,R,ugm-3,24.86150,R,ugm-3
03-01-2013,19:00,2.01065,R,ugm-3,18.15871,R,ugm-3,21.24204,R,ugm-3
03-01-2013,20:00,1.35332,R,ugm-3,15.13218,R,ugm-3,17.20724,R,ugm-3
03-01-2013,21:00,1.23732,R,ugm-3,11.57158,R,ugm-3,13.46912,R,ugm-3
03-01-2013,22:00,1.04399,R,ugm-3,7.83360,R,ugm-3,9.43432,R,ugm-3
03-01-2013,23:00,1.00532,R,ugm-3,9.79152,R,ugm-3,11.33305,R,ugm-3
03-01-2013,24:00,0.77333,R,ugm-3,4.56944,R,ugm-3,5.75553,R,ugm-3
04-01-2013,01:00,0.87644,R,ugm-3,2.77313,R,ugm-3,4.11723,R,ugm-3
04-01-2013,02:00,0.81199,R,ugm-3,6.11857,R,ugm-3,7.36351,R,ugm-3
04-01-2013,03:00,0.88933,R,ugm-3,2.79273,R,ugm-3,4.15682,R,ugm-3
04-01-2013,04:00,0.85066,R,ugm-3,3.03083,R,ugm-3,4.33497,R,ugm-3
04-01-2013,05:00,0.96666,R,ugm-3,3.56538,R,ugm-3,5.04757,R,ugm-3
04-01-2013,06:00,0.85066,R,ugm-3,5.94023,R,ugm-3,7.24474,R,ugm-3
04-01-2013,07:00,5.60661,R,ugm-3,18.00667,R,ugm-3,26.60364,R,ugm-3
04-01-2013,08:00,3.67330,R,ugm-3,12.77598,R,ugm-3,18.40877,R,ugm-3
04-01-2013,09:00,5.18128,R,ugm-3,17.35307,R,ugm-3,25.29721,R,ugm-3
04-01-2013,10:00,2.16531,R,ugm-3,12.11903,R,ugm-3,15.43961,R,ugm-3
04-01-2013,11:00,2.20398,R,ugm-3,11.16948,R,ugm-3,14.54887,R,ugm-3
04-01-2013,12:00,3.13197,R,ugm-3,14.43746,R,ugm-3,19.24013,R,ugm-3
04-01-2013,13:00,2.28131,R,ugm-3,10.99162,R,ugm-3,14.48948,R,ugm-3
04-01-2013,14:00,3.90530,R,ugm-3,16.33992,R,ugm-3,22.32806,R,ugm-3
04-01-2013,15:00,4.44663,R,ugm-3,20.31983,R,ugm-3,27.13809,R,ugm-3
04-01-2013,16:00,5.10395,R,ugm-3,21.86513,R,ugm-3,29.69156,R,ugm-3
04-01-2013,17:00,2.24265,R,ugm-3,19.66146,R,ugm-3,23.10004,R,ugm-3
04-01-2013,18:00,2.62931,R,ugm-3,24.11615,R,ugm-3,28.14760,R,ugm-3
04-01-2013,19:00,1.70132,R,ugm-3,15.85988,R,ugm-3,18.46815,R,ugm-3
04-01-2013,20:00,1.31465,R,ugm-3,10.39587,R,ugm-3,12.41107,R,ugm-3
04-01-2013,21:00,1.50799,R,ugm-3,15.08723,R,ugm-3,17.39926,R,ugm-3
04-01-2013,22:00,1.23732,R,ugm-3,14.72960,R,ugm-3,16.62728,R,ugm-3
04-01-2013,23:00,0.96666,R,ugm-3,14.01671,R,ugm-3,15.49900,R,ugm-3
04-01-2013,24:00,1.15999,R,ugm-3,16.09560,R,ugm-3,17.87432,R,ugm-3
05-01-2013,01:00,1.02985,R,ugm-3,7.85018,R,ugm-3,9.42971,R,ugm-3
05-01-2013,02:00,0.85004,R,ugm-3,6.18455,R,ugm-3,7.48830,R,ugm-3
05-01-2013,03:00,0.81137,R,ugm-3,6.42218,R,ugm-3,7.66659,R,ugm-3
05-01-2013,04:00,1.00439,R,ugm-3,14.68465,R,ugm-3,16.22465,R,ugm-3
05-01-2013,05:00,0.92674,R,ugm-3,5.71073,R,ugm-3,7.13171,R,ugm-3
05-01-2013,06:00,0.81137,R,ugm-3,10.58282,R,ugm-3,11.82676,R,ugm-3
05-01-2013,07:00,2.12446,R,ugm-3,13.79917,R,ugm-3,17.05668,R,ugm-3
05-01-2013,08:00,3.05183,R,ugm-3,23.84696,R,ugm-3,28.52685,R,ugm-3
05-01-2013,09:00,1.77740,R,ugm-3,18.55077,R,ugm-3,21.27628,R,ugm-3
05-01-2013,10:00,2.78148,R,ugm-3,21.23114,R,ugm-3,25.49587,R,ugm-3
05-01-2013,11:00,4.67488,R,ugm-3,29.97653,R,ugm-3,37.14434,R,ugm-3
05-01-2013,12:00,3.47716,R,ugm-3,23.78959,R,ugm-3,29.12116,R,ugm-3
05-01-2013,13:00,2.74281,R,ugm-3,19.21011,R,ugm-3,23.41579,R,ugm-3
05-01-2013,14:00,2.43379,R,ugm-3,21.34828,R,ugm-3,25.07986,R,ugm-3
05-01-2013,15:00,3.55481,R,ugm-3,31.45632,R,ugm-3,36.90661,R,ugm-3
05-01-2013,16:00,2.66610,R,ugm-3,25.86513,R,ugm-3,29.95319,R,ugm-3
05-01-2013,17:00,1.58407,R,ugm-3,17.95551,R,ugm-3,20.38481,R,ugm-3
05-01-2013,18:00,1.46807,R,ugm-3,12.90412,R,ugm-3,15.15489,R,ugm-3
05-01-2013,19:00,1.12008,R,ugm-3,11.59453,R,ugm-3,13.31253,R,ugm-3
05-01-2013,20:00,1.27474,R,ugm-3,12.96293,R,ugm-3,14.91717,R,ugm-3
05-01-2013,21:00,1.31341,R,ugm-3,11.29857,R,ugm-3,13.31253,R,ugm-3
05-01-2013,22:00,1.00408,R,ugm-3,10.88165,R,ugm-3,12.42107,R,ugm-3
05-01-2013,23:00,1.27474,R,ugm-3,12.24956,R,ugm-3,14.20399,R,ugm-3
05-01-2013,24:00,0.96541,R,ugm-3,11.17856,R,ugm-3,12.65879,R,ugm-3
06-01-2013,01:00,1.13213,R,ugm-3,10.48688,R,ugm-3,12.22279,R,ugm-3
06-01-2013,02:00,0.92674,R,ugm-3,12.62728,R,ugm-3,14.04827,R,ugm-3
06-01-2013,03:00,0.92674,R,ugm-3,8.99640,R,ugm-3,10.41715,R,ugm-3
06-01-2013,04:00,1.04243,R,ugm-3,7.74706,R,ugm-3,9.34567,R,ugm-3
06-01-2013,05:00,0.84941,R,ugm-3,6.31651,R,ugm-3,7.61940,R,ugm-3
06-01-2013,06:00,0.92674,R,ugm-3,8.40018,R,ugm-3,9.82188,R,ugm-3
06-01-2013,07:00,3.01098,R,ugm-3,24.01574,R,ugm-3,28.63228,R,ugm-3
06-01-2013,08:00,23.97342,R,ugm-3,39.91148,R,ugm-3,76.67021,R,ugm-3
06-01-2013,09:00,45.93868,R,ugm-3,45.63799,R,ugm-3,116.07680,R,ugm-3
06-01-2013,10:00,65.74269,R,ugm-3,48.48809,R,ugm-3,149.29262,R,ugm-3
06-01-2013,11:00,37.94817,R,ugm-3,47.88996,R,ugm-3,106.07633,R,ugm-3
06-01-2013,12:00,5.05718,R,ugm-3,22.36573,R,ugm-3,30.12044,R,ugm-3
06-01-2013,13:00,10.15271,R,ugm-3,34.25670,R,ugm-3,49.82373,R,ugm-3
06-01-2013,14:00,17.91216,R,ugm-3,36.34754,R,ugm-3,63.81248,R,ugm-3
06-01-2013,15:00,3.12667,R,ugm-3,21.99184,R,ugm-3,26.78695,R,ugm-3
06-01-2013,16:00,1.77553,R,ugm-3,22.09989,R,ugm-3,24.82258,R,ugm-3
06-01-2013,17:00,1.96886,R,ugm-3,28.88736,R,ugm-3,31.90624,R,ugm-3
06-01-2013,18:00,1.85318,R,ugm-3,30.13670,R,ugm-3,32.97772,R,ugm-3
06-01-2013,19:00,2.54792,R,ugm-3,32.46421,R,ugm-3,36.37073,R,ugm-3
06-01-2013,20:00,2.89530,R,ugm-3,36.03867,R,ugm-3,40.47806,R,ugm-3
06-01-2013,21:00,3.12698,R,ugm-3,38.54070,R,ugm-3,43.33534,R,ugm-3
06-01-2013,22:00,2.27788,R,ugm-3,36.21128,R,ugm-3,39.70422,R,ugm-3
06-01-2013,23:00,1.31247,R,ugm-3,26.32269,R,ugm-3,28.33464,R,ugm-3
06-01-2013,24:00,1.11976,R,ugm-3,17.03416,R,ugm-3,18.75087,R,ugm-3
07-01-2013,01:00,0.97705,R,ugm-3,12.40256,R,ugm-3,13.90069,R,ugm-3
07-01-2013,02:00,1.11883,R,ugm-3,15.68011,R,ugm-3,17.39572,R,ugm-3
07-01-2013,03:00,0.96416,R,ugm-3,11.80634,R,ugm-3,13.28509,R,ugm-3
07-01-2013,04:00,0.92550,R,ugm-3,9.48313,R,ugm-3,10.90211,R,ugm-3
07-01-2013,05:00,0.96416,R,ugm-3,7.99377,R,ugm-3,9.47233,R,ugm-3
07-01-2013,06:00,1.15749,R,ugm-3,12.46376,R,ugm-3,14.23828,R,ugm-3
07-01-2013,07:00,2.50707,R,ugm-3,22.13049,R,ugm-3,25.97443,R,ugm-3
07-01-2013,08:00,9.37315,R,ugm-3,33.34731,R,ugm-3,47.71907,R,ugm-3
07-01-2013,09:00,15.85350,R,ugm-3,40.56843,R,ugm-3,64.87649,R,ugm-3
07-01-2013,10:00,10.10625,R,ugm-3,37.10824,R,ugm-3,52.60417,R,ugm-3
07-01-2013,11:00,8.56303,R,ugm-3,25.59355,R,ugm-3,38.72334,R,ugm-3
07-01-2013,12:00,5.74725,R,ugm-3,27.52757,R,ugm-3,36.34037,R,ugm-3
07-01-2013,13:00,6.86576,R,ugm-3,27.12355,R,ugm-3,37.65101,R,ugm-3
07-01-2013,14:00,8.33196,R,ugm-3,32.67984,R,ugm-3,45.45525,R,ugm-3
07-01-2013,15:00,6.63439,R,ugm-3,36.17637,R,ugm-3,46.34886,R,ugm-3
07-01-2013,16:00,13.96321,R,ugm-3,43.94351,R,ugm-3,65.35309,R,ugm-3
07-01-2013,17:00,3.47155,R,ugm-3,37.80917,R,ugm-3,43.13185,R,ugm-3
07-01-2013,18:00,2.85476,R,ugm-3,37.80152,R,ugm-3,42.17866,R,ugm-3
07-01-2013,19:00,3.00880,R,ugm-3,38.04202,R,ugm-3,42.65525,R,ugm-3
07-01-2013,20:00,2.58472,R,ugm-3,33.98608,R,ugm-3,37.94888,R,ugm-3
07-01-2013,21:00,1.50424,R,ugm-3,23.25026,R,ugm-3,25.55741,R,ugm-3
07-01-2013,22:00,0.84848,R,ugm-3,13.95025,R,ugm-3,15.25104,R,ugm-3
07-01-2013,23:00,1.15749,R,ugm-3,18.42072,R,ugm-3,20.19571,R,ugm-3
07-01-2013,24:00,1.00283,R,ugm-3,16.39395,R,ugm-3,17.93189,R,ugm-3
08-01-2013,01:00,0.92550,R,ugm-3,14.40049,R,ugm-3,15.81975,R,ugm-3
08-01-2013,02:00,0.88683,R,ugm-3,12.29355,R,ugm-3,13.65348,R,ugm-3
08-01-2013,03:00,0.69412,R,ugm-3,8.17737,R,ugm-3,9.24144,R,ugm-3
08-01-2013,04:00,0.77114,R,ugm-3,8.89408,R,ugm-3,10.07615,R,ugm-3
08-01-2013,05:00,0.92550,R,ugm-3,7.22590,R,ugm-3,8.64522,R,ugm-3
08-01-2013,06:00,0.80981,R,ugm-3,8.65502,R,ugm-3,9.89728,R,ugm-3
08-01-2013,07:00,10.76170,R,ugm-3,46.34035,R,ugm-3,62.84179,R,ugm-3
08-01-2013,08:00,14.15623,R,ugm-3,40.42021,R,ugm-3,62.12632,R,ugm-3
08-01-2013,09:00,17.66645,R,ugm-3,43.20672,R,ugm-3,70.29456,R,ugm-3
08-01-2013,10:00,3.24017,R,ugm-3,27.82401,R,ugm-3,32.79220,R,ugm-3
08-01-2013,11:00,2.73845,R,ugm-3,26.74488,R,ugm-3,30.94392,R,ugm-3
08-01-2013,12:00,5.90191,R,ugm-3,27.85700,R,ugm-3,36.90613,R,ugm-3
08-01-2013,13:00,4.28167,R,ugm-3,32.24858,R,ugm-3,38.81404,R,ugm-3
08-01-2013,14:00,5.97924,R,ugm-3,31.25551,R,ugm-3,40.42384,R,ugm-3
08-01-2013,15:00,6.44168,R,ugm-3,35.49552,R,ugm-3,45.37249,R,ugm-3
08-01-2013,16:00,12.84470,R,ugm-3,45.94925,R,ugm-3,65.64403,R,ugm-3
08-01-2013,17:00,9.48915,R,ugm-3,52.34608,R,ugm-3,66.89609,R,ugm-3
08-01-2013,18:00,16.85664,R,ugm-3,51.12591,R,ugm-3,76.97224,R,ugm-3
08-01-2013,19:00,7.48287,R,ugm-3,32.76591,R,ugm-3,44.23966,R,ugm-3
08-01-2013,20:00,5.51556,R,ugm-3,33.39751,R,ugm-3,41.85478,R,ugm-3
08-01-2013,21:00,3.04747,R,ugm-3,26.33082,R,ugm-3,31.00354,R,ugm-3
08-01-2013,22:00,2.85445,R,ugm-3,27.69969,R,ugm-3,32.07674,R,ugm-3
08-01-2013,23:00,7.79157,R,ugm-3,42.84574,R,ugm-3,54.79279,R,ugm-3
08-01-2013,24:00,4.51304,R,ugm-3,36.54453,R,ugm-3,43.46458,R,ugm-3
09-01-2013,01:00,1.49011,R,ugm-3,20.54918,R,ugm-3,22.83372,R,ugm-3
09-01-2013,02:00,1.38731,R,ugm-3,16.31028,R,ugm-3,18.43803,R,ugm-3
09-01-2013,03:00,1.77304,R,ugm-3,11.24454,R,ugm-3,13.96278,R,ugm-3
09-01-2013,04:00,1.04056,R,ugm-3,10.57708,R,ugm-3,12.17268,R,ugm-3
09-01-2013,05:00,1.15625,R,ugm-3,11.83168,R,ugm-3,13.60476,R,ugm-3
09-01-2013,06:00,4.39393,R,ugm-3,17.13074,R,ugm-3,23.86800,R,ugm-3
09-01-2013,07:00,18.34591,R,ugm-3,46.87538,R,ugm-3,75.00519,R,ugm-3
09-01-2013,08:00,30.40917,R,ugm-3,53.08192,R,ugm-3,99.70857,R,ugm-3
09-01-2013,09:00,68.95074,R,ugm-3,74.48040,R,ugm-3,180.20340,R,ugm-3
09-01-2013,10:00,81.01432,R,ugm-3,80.32883,R,ugm-3,204.54876,R,ugm-3
09-01-2013,11:00,49.48725,R,ugm-3,62.97289,R,ugm-3,138.85209,R,ugm-3
09-01-2013,12:00,16.30315,R,ugm-3,36.64159,R,ugm-3,61.63911,R,ugm-3
09-01-2013,13:00,10.21352,R,ugm-3,27.77906,R,ugm-3,43.43976,R,ugm-3
09-01-2013,14:00,7.63098,R,ugm-3,25.65284,R,ugm-3,37.35342,R,ugm-3
09-01-2013,15:00,14.45309,R,ugm-3,38.58278,R,ugm-3,60.74406,R,ugm-3
09-01-2013,16:00,21.42924,R,ugm-3,54.20073,R,ugm-3,87.05853,R,ugm-3
09-01-2013,17:00,24.82065,R,ugm-3,62.60569,R,ugm-3,100.66329,R,ugm-3
09-01-2013,18:00,29.90838,R,ugm-3,71.39315,R,ugm-3,117.25155,R,ugm-3
09-01-2013,19:00,29.09889,R,ugm-3,75.49737,R,ugm-3,120.11571,R,ugm-3
09-01-2013,20:00,9.05758,R,ugm-3,59.44672,R,ugm-3,73.33443,R,ugm-3
09-01-2013,21:00,4.66366,R,ugm-3,46.31310,R,ugm-3,53.46432,R,ugm-3
09-01-2013,22:00,3.50741,R,ugm-3,39.55337,R,ugm-3,44.93151,R,ugm-3
09-01-2013,23:00,2.58254,R,ugm-3,33.03557,R,ugm-3,36.99540,R,ugm-3
09-01-2013,24:00,1.38731,R,ugm-3,27.46876,R,ugm-3,29.59632,R,ugm-3
10-01-2013,01:00,1.38700,R,ugm-3,26.29879,R,ugm-3,28.42568,R,ugm-3
10-01-2013,02:00,1.23264,R,ugm-3,18.23473,R,ugm-3,20.12490,R,ugm-3
10-01-2013,03:00,1.23233,R,ugm-3,18.65309,R,ugm-3,20.54293,R,ugm-3
10-01-2013,04:00,1.11665,R,ugm-3,15.36694,R,ugm-3,17.07929,R,ugm-3
10-01-2013,05:00,1.42504,R,ugm-3,23.37458,R,ugm-3,25.55922,R,ugm-3
10-01-2013,06:00,2.19494,R,ugm-3,27.03080,R,ugm-3,30.39637,R,ugm-3
10-01-2013,07:00,27.49642,R,ugm-3,62.52488,R,ugm-3,104.68533,R,ugm-3
10-01-2013,08:00,46.86699,R,ugm-3,64.59373,R,ugm-3,136.45520,R,ugm-3
10-01-2013,09:00,81.52665,R,ugm-3,86.93269,R,ugm-3,211.93852,R,ugm-3
10-01-2013,10:00,55.76304,R,ugm-3,68.80888,R,ugm-3,154.31083,R,ugm-3
10-01-2013,11:00,55.10821,R,ugm-3,64.31881,R,ugm-3,148.81679,R,ugm-3
10-01-2013,12:00,62.00204,R,ugm-3,67.24398,R,ugm-3,162.31301,R,ugm-3
10-01-2013,13:00,18.21526,R,ugm-3,41.52229,R,ugm-3,69.45182,R,ugm-3
10-01-2013,14:00,10.62887,R,ugm-3,32.61147,R,ugm-3,48.90889,R,ugm-3
10-01-2013,15:00,9.31920,R,ugm-3,32.94759,R,ugm-3,47.23679,R,ugm-3
10-01-2013,16:00,15.13474,R,ugm-3,43.25979,R,ugm-3,66.46593,R,ugm-3
10-01-2013,17:00,15.13474,R,ugm-3,46.36474,R,ugm-3,69.57125,R,ugm-3
10-01-2013,18:00,5.85358,R,ugm-3,30.07980,R,ugm-3,39.05545,R,ugm-3
10-01-2013,19:00,7.89479,R,ugm-3,35.60932,R,ugm-3,47.71453,R,ugm-3
10-01-2013,20:00,2.84977,R,ugm-3,25.60885,R,ugm-3,29.97834,R,ugm-3
10-01-2013,21:00,1.92521,R,ugm-3,32.99780,R,ugm-3,35.95012,R,ugm-3
10-01-2013,22:00,1.65548,R,ugm-3,19.13887,R,ugm-3,21.67757,R,ugm-3
10-01-2013,23:00,1.27069,R,ugm-3,11.66721,R,ugm-3,13.61566,R,ugm-3
10-01-2013,24:00,3.35025,R,ugm-3,26.39393,R,ugm-3,31.53101,R,ugm-3
11-01-2013,01:00,3.44005,R,ugm-3,41.10345,R,ugm-3,46.37813,R,ugm-3
11-01-2013,02:00,1.15500,R,ugm-3,14.12668,R,ugm-3,15.89766,R,ugm-3
11-01-2013,03:00,1.23202,R,ugm-3,19.62655,R,ugm-3,21.51563,R,ugm-3
11-01-2013,04:00,1.03963,R,ugm-3,15.25984,R,ugm-3,16.85391,R,ugm-3
11-01-2013,05:00,1.65579,R,ugm-3,19.33538,R,ugm-3,21.87422,R,ugm-3
11-01-2013,06:00,1.88717,R,ugm-3,17.24740,R,ugm-3,20.14102,R,ugm-3
11-01-2013,07:00,5.27608,R,ugm-3,27.47067,R,ugm-3,35.56055,R,ugm-3
11-01-2013,08:00,12.16959,R,ugm-3,42.36092,R,ugm-3,61.02070,R,ugm-3
11-01-2013,09:00,16.71351,R,ugm-3,52.84524,R,ugm-3,78.47227,R,ugm-3
11-01-2013,10:00,4.89098,R,ugm-3,29.31623,R,ugm-3,36.81563,R,ugm-3
11-01-2013,11:00,8.24154,R,ugm-3,25.13503,R,ugm-3,37.77188,R,ugm-3
11-01-2013,12:00,5.23710,R,ugm-3,23.28708,R,ugm-3,31.31719,R,ugm-3
11-01-2013,13:00,5.39145,R,ugm-3,24.96291,R,ugm-3,33.22969,R,ugm-3
11-01-2013,14:00,14.71128,R,ugm-3,48.86294,R,ugm-3,71.41992,R,ugm-3
11-01-2013,15:00,12.20764,R,ugm-3,34.89165,R,ugm-3,53.60977,R,ugm-3
11-01-2013,16:00,11.12935,R,ugm-3,40.78837,R,ugm-3,57.85313,R,ugm-3
11-01-2013,17:00,27.38104,R,ugm-3,61.05226,R,ugm-3,103.03594,R,ugm-3
11-01-2013,18:00,23.76138,R,ugm-3,63.97265,R,ugm-3,100.40625,R,ugm-3
11-01-2013,19:00,6.43108,R,ugm-3,53.43095,R,ugm-3,63.29180,R,ugm-3
11-01-2013,20:00,4.35183,R,ugm-3,48.19213,R,ugm-3,54.86484,R,ugm-3
11-01-2013,21:00,2.54200,R,ugm-3,32.32029,R,ugm-3,36.21797,R,ugm-3
11-01-2013,22:00,1.65579,R,ugm-3,28.24045,R,ugm-3,30.77930,R,ugm-3
11-01-2013,23:00,1.92583,R,ugm-3,29.38030,R,ugm-3,32.33320,R,ugm-3
11-01-2013,24:00,1.92552,R,ugm-3,29.73938,R,ugm-3,32.69180,R,ugm-3
12-01-2013,01:00,1.53917,R,ugm-3,22.62169,R,ugm-3,24.98210,R,ugm-3
12-01-2013,02:00,1.50081,R,ugm-3,18.05209,R,ugm-3,20.35283,R,ugm-3
12-01-2013,03:00,1.46246,R,ugm-3,12.12429,R,ugm-3,14.36670,R,ugm-3
12-01-2013,04:00,1.61619,R,ugm-3,13.14557,R,ugm-3,15.62379,R,ugm-3
12-01-2013,05:00,1.65454,R,ugm-3,12.36862,R,ugm-3,14.90545,R,ugm-3
12-01-2013,06:00,1.46246,R,ugm-3,9.78961,R,ugm-3,12.03211,R,ugm-3
12-01-2013,07:00,1.46215,R,ugm-3,12.84292,R,ugm-3,15.08504,R,ugm-3
12-01-2013,08:00,4.92559,R,ugm-3,22.79748,R,ugm-3,30.34965,R,ugm-3
12-01-2013,09:00,1.92396,R,ugm-3,25.06523,R,ugm-3,28.01507,R,ugm-3
12-01-2013,10:00,1.38544,R,ugm-3,11.58401,R,ugm-3,13.70823,R,ugm-3
12-01-2013,11:00,1.50081,R,ugm-3,8.95289,R,ugm-3,11.25392,R,ugm-3
12-01-2013,12:00,1.57752,R,ugm-3,8.23666,R,ugm-3,10.65530,R,ugm-3
12-01-2013,13:00,1.15406,R,ugm-3,4.75543,R,ugm-3,6.52488,R,ugm-3
12-01-2013,14:00,1.50050,R,ugm-3,10.27013,R,ugm-3,12.57086,R,ugm-3
12-01-2013,15:00,1.26975,R,ugm-3,7.81065,R,ugm-3,9.75738,R,ugm-3
12-01-2013,16:00,6.58013,R,ugm-3,14.09465,R,ugm-3,24.18395,R,ugm-3
12-01-2013,17:00,1.11602,R,ugm-3,12.11664,R,ugm-3,13.82795,R,ugm-3
12-01-2013,18:00,1.65486,R,ugm-3,12.60768,R,ugm-3,15.14490,R,ugm-3
12-01-2013,19:00,2.03934,R,ugm-3,22.55363,R,ugm-3,25.68048,R,ugm-3
12-01-2013,20:00,1.57752,R,ugm-3,16.37769,R,ugm-3,18.79643,R,ugm-3
12-01-2013,21:00,1.80859,R,ugm-3,18.95622,R,ugm-3,21.72963,R,ugm-3
12-01-2013,22:00,0.96198,R,ugm-3,7.50417,R,ugm-3,8.97919,R,ugm-3
12-01-2013,23:00,7.38807,R,ugm-3,39.01548,R,ugm-3,50.34331,R,ugm-3
12-01-2013,24:00,1.23140,R,ugm-3,11.46113,R,ugm-3,13.34906,R,ugm-3
13-01-2013,01:00,1.94828,R,ugm-3,32.23965,R,ugm-3,35.22653,R,ugm-3
13-01-2013,02:00,25.17051,R,ugm-3,50.15085,R,ugm-3,88.74529,R,ugm-3
13-01-2013,03:00,6.11302,R,ugm-3,34.06115,R,ugm-3,43.43407,R,ugm-3
13-01-2013,04:00,4.34435,R,ugm-3,29.82353,R,ugm-3,36.48462,R,ugm-3
13-01-2013,05:00,6.26706,R,ugm-3,28.61243,R,ugm-3,38.22198,R,ugm-3
13-01-2013,06:00,17.18624,R,ugm-3,37.99038,R,ugm-3,64.34233,R,ugm-3
13-01-2013,07:00,15.41756,R,ugm-3,37.16800,R,ugm-3,60.80770,R,ugm-3
13-01-2013,08:00,25.45272,R,ugm-3,38.43551,R,ugm-3,77.46242,R,ugm-3
13-01-2013,09:00,16.57100,R,ugm-3,34.44078,R,ugm-3,59.84915,R,ugm-3
13-01-2013,10:00,23.56898,R,ugm-3,35.69251,R,ugm-3,71.83097,R,ugm-3
13-01-2013,11:00,17.60907,R,ugm-3,29.97318,R,ugm-3,56.97352,R,ugm-3
13-01-2013,12:00,6.15168,R,ugm-3,18.18596,R,ugm-3,27.61808,R,ugm-3
13-01-2013,13:00,6.30541,R,ugm-3,17.95025,R,ugm-3,27.61808,R,ugm-3
13-01-2013,14:00,4.49839,R,ugm-3,19.88187,R,ugm-3,26.77935,R,ugm-3
13-01-2013,15:00,3.61405,R,ugm-3,22.19648,R,ugm-3,27.73790,R,ugm-3
13-01-2013,16:00,2.46092,R,ugm-3,21.26843,R,ugm-3,25.04199,R,ugm-3
13-01-2013,17:00,2.73003,R,ugm-3,24.80991,R,ugm-3,28.99599,R,ugm-3
13-01-2013,18:00,6.11333,R,ugm-3,41.42905,R,ugm-3,50.80289,R,ugm-3
13-01-2013,19:00,3.57601,R,ugm-3,30.40253,R,ugm-3,35.88553,R,ugm-3
13-01-2013,20:00,2.07644,R,ugm-3,23.59547,R,ugm-3,26.77935,R,ugm-3
13-01-2013,21:00,1.88405,R,ugm-3,20.47570,R,ugm-3,23.36453,R,ugm-3
13-01-2013,22:00,1.42255,R,ugm-3,15.37172,R,ugm-3,17.55336,R,ugm-3
13-01-2013,23:00,1.49957,R,ugm-3,19.26796,R,ugm-3,21.56726,R,ugm-3
13-01-2013,24:00,1.80734,R,ugm-3,28.92083,R,ugm-3,31.69189,R,ugm-3
14-01-2013,01:00,2.71496,R,ugm-3,41.88375,R,ugm-3,46.04688,R,ugm-3
14-01-2013,02:00,2.11293,R,ugm-3,39.56915,R,ugm-3,42.80921,R,ugm-3
14-01-2013,03:00,1.57534,R,ugm-3,28.40206,R,ugm-3,30.81783,R,ugm-3
14-01-2013,04:00,1.22984,R,ugm-3,22.15727,R,ugm-3,24.04271,R,ugm-3
14-01-2013,05:00,1.76742,R,ugm-3,19.83358,R,ugm-3,22.54379,R,ugm-3
14-01-2013,06:00,2.45874,R,ugm-3,23.69062,R,ugm-3,27.46025,R,ugm-3
14-01-2013,07:00,12.56218,R,ugm-3,33.68008,R,ugm-3,52.94192,R,ugm-3
14-01-2013,08:00,51.47857,R,ugm-3,60.64729,R,ugm-3,139.57961,R,ugm-3
14-01-2013,09:00,31.15600,R,ugm-3,47.25979,R,ugm-3,95.03165,R,ugm-3
14-01-2013,10:00,17.28758,R,ugm-3,38.00663,R,ugm-3,64.51360,R,ugm-3
14-01-2013,11:00,16.36551,R,ugm-3,39.00066,R,ugm-3,64.09390,R,ugm-3
14-01-2013,12:00,11.94758,R,ugm-3,34.80224,R,ugm-3,53.12179,R,ugm-3
14-01-2013,13:00,23.78009,R,ugm-3,41.12210,R,ugm-3,77.58420,R,ugm-3
14-01-2013,14:00,32.42388,R,ugm-3,57.90620,R,ugm-3,107.62259,R,ugm-3
14-01-2013,15:00,36.49600,R,ugm-3,51.18280,R,ugm-3,107.14294,R,ugm-3
14-01-2013,16:00,58.39360,R,ugm-3,61.25594,R,ugm-3,150.79154,R,ugm-3
14-01-2013,17:00,12.02460,R,ugm-3,33.54525,R,ugm-3,51.98261,R,ugm-3
14-01-2013,18:00,5.26329,R,ugm-3,29.16276,R,ugm-3,37.23322,R,ugm-3
14-01-2013,19:00,6.18536,R,ugm-3,32.54597,R,ugm-3,42.02977,R,ugm-3
14-01-2013,20:00,3.38018,R,ugm-3,21.55770,R,ugm-3,26.74077,R,ugm-3
14-01-2013,21:00,7.45293,R,ugm-3,36.89786,R,ugm-3,48.32524,R,ugm-3
14-01-2013,22:00,4.37958,R,ugm-3,34.17494,R,ugm-3,40.89059,R,ugm-3
14-01-2013,23:00,2.42039,R,ugm-3,30.94377,R,ugm-3,34.65507,R,ugm-3
14-01-2013,24:00,6.06999,R,ugm-3,42.37526,R,ugm-3,51.68283,R,ugm-3
15-01-2013,01:00,2.35657,R,ugm-3,25.02889,R,ugm-3,28.64224,R,ugm-3
15-01-2013,02:00,31.73225,R,ugm-3,38.89117,R,ugm-3,87.54684,R,ugm-3
15-01-2013,03:00,1.69040,R,ugm-3,15.52950,R,ugm-3,18.12142,R,ugm-3
15-01-2013,04:00,2.65051,R,ugm-3,18.19792,R,ugm-3,22.26174,R,ugm-3
15-01-2013,05:00,2.95828,R,ugm-3,12.62537,R,ugm-3,17.16134,R,ugm-3
15-01-2013,06:00,3.38050,R,ugm-3,15.57827,R,ugm-3,20.76162,R,ugm-3
15-01-2013,07:00,85.05495,R,ugm-3,60.87918,R,ugm-3,191.29494,R,ugm-3
15-01-2013,08:00,50.94067,R,ugm-3,66.38288,R,ugm-3,144.49129,R,ugm-3
15-01-2013,09:00,37.37971,R,ugm-3,57.59398,R,ugm-3,114.90898,R,ugm-3
15-01-2013,10:00,33.61474,R,ugm-3,57.96692,R,ugm-3,109.50856,R,ugm-3
15-01-2013,11:00,28.42846,R,ugm-3,47.01738,R,ugm-3,90.60708,R,ugm-3
15-01-2013,12:00,40.99064,R,ugm-3,50.85720,R,ugm-3,113.70888,R,ugm-3
15-01-2013,13:00,17.28758,R,ugm-3,36.13764,R,ugm-3,62.64489,R,ugm-3
15-01-2013,14:00,27.46804,R,ugm-3,45.48977,R,ugm-3,87.60684,R,ugm-3
15-01-2013,15:00,24.54874,R,ugm-3,47.86557,R,ugm-3,85.50668,R,ugm-3
15-01-2013,16:00,51.01738,R,ugm-3,65.36590,R,ugm-3,143.59122,R,ugm-3
15-01-2013,17:00,62.96495,R,ugm-3,72.06826,R,ugm-3,168.61317,R,ugm-3
15-01-2013,18:00,97.54042,R,ugm-3,87.51887,R,ugm-3,237.07852,R,ugm-3